Regional Weather Roundup
Issued by NWS Sterling, VA

Home | Current Version | Previous Version | Graphics & Text | Print | Product List | Glossary On
Versions: 1 2 3 4 5 6 7 8 9 10 11 12 13 14 15 16 17 18 19 20 21 22 23 24 25 26 27 28 29 30 31 32 33 34 35 36 37 38 39 40 41 42 43 44 45 46 47 48 49 50
000
ASUS41 KLWX 252211
RWRLWX

REGIONAL WEATHER ROUNDUP
NATIONAL WEATHER SERVICE BALTIMORE MD/WASHINGTON DC
600 PM EDT SUN JUN 25 2017

Note: "FAIR" indicates few or no clouds below 12,000 feet
with no significant weather and/or obstructions to visibility.
 TC=TEMPERATURE CELSIUS

 * =Non NWS site. Station does not report precipitation (e.g. rain,
    snow, etc.), thunder, or fog.

DCZ001-MDZ009-015-VAZ040>042-051-053>054-252300-
WASHINGTON METRO

CITY           SKY/WX    TMP DP  RH WIND       PRES   REMARKS
WASHINGTON NAT PTSUNNY   85  49  28 W15       29.97S
DULLES         MOSUNNY   82  45  27 NW17G24   29.99S
ANDREWS AFB    MOSUNNY   84  50  30 W12       29.97S
FT BELVOIR     MOSUNNY   84  52  32 W10       29.97S
QUANTICO       MOSUNNY   86  53  32 NW7       29.98S
COLLEGE PARK*  SUNNY     83  49  30 W8        29.97S
LEESBURG*      SUNNY    N/A N/A N/A NW14      30.01S
MANASSAS*      SUNNY     82  54  36 NW8       29.99S
GAITHERSBURG*  SUNNY     80  49  33 NW16      30.01S

$$

MDZ006>007-011-014-252300-
BALTIMORE METRO

CITY           SKY/WX    TMP DP  RH WIND       PRES   REMARKS
BWI AIRPORT    MOSUNNY   83  49  30 W15G22    29.96S
MD SCIENCE CTR   N/A     85  45  24 MISG      29.97R
MARTIN STATE   MOSUNNY   84  48  28 W15G21    29.97S
ANNAPOLIS      SUNNY     82  54  37 NW10      29.95S
FORT MEADE*    SUNNY     81  52  36 W13       29.99S

$$

MDZ012-015-019>023-252300-
MARYLAND EASTERN SHORE

CITY           SKY/WX    TMP DP  RH WIND       PRES   REMARKS
OCEAN CITY     MOSUNNY   75  65  70 S8        29.98S
SALISBURY      MOSUNNY   83  58  42 W6        29.97S
BAY BRIDGE AP* MOSUNNY   84  59  42 SW5       29.96S
CAMBRIDGE*     SUNNY     84  59  42 W6        29.96F
EASTON*        MOSUNNY   84  59  42 W5        30.00S

$$

MDZ017>025-252300-
SOUTHERN MARYLAND

CITY           SKY/WX    TMP DP  RH WIND       PRES   REMARKS
PATUXENT RIVER CLOUDY    82  60  47 W9        29.97S
ST INIGOES     SUNNY     83  61  47 W6        29.97S
LEONARDTOWN*   PTSUNNY   81  59  47 SW5       29.99S

$$

MDZ003>005-252300-
NORTH CENTRAL MARYLAND

CITY           SKY/WX    TMP DP  RH WIND       PRES   REMARKS
FREDERICK*     MOSUNNY   82  41  23 NW13G20   30.02S
HAGERSTOWN APT MOSUNNY   80  47  31 NW18      30.00S
WESTMINSTER*   MOSUNNY   82  50  32 W10       30.00S

$$

MDZ501>502-252300-
WESTERN MARYLAND

CITY           SKY/WX    TMP DP  RH WIND       PRES   REMARKS
OAKLAND*       NOT AVBL
CUMBERLAND*    SUNNY     77  45  31 W9G20     30.07F

$$

VAZ025>031-252300-
SHENANDOAH VALLEY

CITY           SKY/WX    TMP DP  RH WIND       PRES   REMARKS
WINCHESTER*    MOSUNNY   77  45  31 NW15      30.03R
FRONT ROYAL*   MOSUNNY   79  43  27 W8        30.02S
LURAY*         SUNNY     81  43  26 W6G16     30.03S
NEW MARKET*    MOSUNNY   78  41  26 NW6       30.03R
STAUNTON*      CLOUDY    78  44  29 NW10G18   30.07R
WAYNESBORO*    CLOUDY    78  47  33 W7        30.06S

$$

WVZ021-048>050-054>055-252300-
EASTERN WEST VIRGINIA PANHANDLE

CITY           SKY/WX    TMP DP  RH WIND       PRES   REMARKS
MARTINSBURG    MOSUNNY   80  44  27 W15G22    30.01R
PETERSBURG*    MOSUNNY   78  47  33 W16       30.06F

$$

VAZ036>039-050-252300-
CENTRAL FOOTHILLS

CITY           SKY/WX    TMP DP  RH WIND       PRES   REMARKS
CHARLOTTESVILL PTSUNNY   83  53  35 VRB3      30.01R
CULPEPER*      MOSUNNY   82  53  35 NW6       30.00S
ORANGE*        PTSUNNY   81  55  41 CALM      29.99S
GORDONSVILLE*  CLOUDY    83  53  35 SW6       29.99F
WARRENTON*     CLOUDY    86  44  23 NW9       29.99S

$$

VAZ055>057-252300-
NORTH AND CENTRAL PIEDMONT

CITY           SKY/WX    TMP DP  RH WIND       PRES   REMARKS
FREDERICKSBRG* PTSUNNY   84  58  41 NW3       29.96F
STAFFORD*      CLOUDY    79  63  56 CALM      30.02S

$$

NCZ024-NYZ072-PAZ021-071-VAZ022-071-252300-
OTHER REGIONAL OBSERVATIONS

CITY           SKY/WX    TMP DP  RH WIND       PRES   REMARKS
NEW YORK CITY  PTSUNNY   78  60  53 CALM      29.95S
PHILADELPHIA   PTSUNNY   84  56  38 W14G20    29.93F
PITTSBURGH     PTSUNNY   72  48  42 W15G24    30.02F
ROANOKE        MOSUNNY   78  46  32 NW14      30.09F
RICHMOND       PTSUNNY   83  58  42 W10       29.99S
RALEIGH        CLOUDY    80  64  58 NW6       30.05S

$$

ANZ530>537-252300-
MARINE OBSERVATIONS

STATION/POSITION TIME  TEMP    WIND        PRES
                       AIR SEA DIR/SP/G
                 (UTC) (F)     (DEG/KT/KT) (MB)
THOMAS PT LIGHT  2200   81 78  170/  7/  8   N/A
BALT KEY BRIDGE  2148   82     250/ 16/ 17 1014.0F
COVE POINT       2148   80     180/ 11/ 12 1015.4F
LEWISETTA        2148   81 80   CALM  /  2 1015.0S
SOLOMONS ISLAND  2148          230/  9/ 11   N/A
PINEY POINT      2148          360/  3/  3   N/A

$$




USA.gov is the U.S. government's official web portal to all federal, state and local government web resources and services.